Content
SEND FEEDBACK

Daily
Averages
Monthly
Summary
United States of America

WAGONER, OKLAHOMA


Home > North America > United States > Oklahoma
Elevation: 585 feet     Latitude: 35 58N     Longitude: 095 22W

WEATHER
 
SELECT A DAY
Number of Records: 333,451;   Date Range: 3/30/01 - 10/29/14
 
SHARE

PRINT THIS DATA

[ ← Previous Day ]
WEATHER ALMANAC - JANUARY 23, 2013
[ Next Day → ]
[ °C ]   °F
Weather ElementAverageHighLow
Temperature42.5 °F60.8 °F (3:35 pm)26.6 °F (7:35 am)
Dewpoint33.9 °F42.8 °F (1:55 pm)23 °F (12:35 am)
Humidity72.9 %93 % (7:35 am)48 % (3:35 pm)
Barometer30.21 in30.27 in (12:35 am)30.14 in (4:15 pm)
Wind Speed1.3 mph5.8 mph (11:15 am)
Weather ElementAverage
Visibility10 mi
Wind DirectionNE (45.9 °)

Weather ElementTotal
Precipitation---
Heating Degree Days21.3 (Base 65)
Averaged from 71 records on January 23, 2013
WEATHER CONDITIONS BREAKOUT
WIND DIRECTION BREAKOUT
WEATHER BY HOUR - JANUARY 23, 2013
[ °C ]   °F
Local TimeTemperatureDewpointHumidityBarometerVisibilityWind DirectionWind SpeedGust SpeedPrecipitationEventsConditions
12:35 AM32.0 °F23.0 °F69 %30.27 in10.0 miCalmClear
12:55 AM32.0 °F23.0 °F69 %30.26 in10.0 miCalmClear
1:15 AM32.0 °F23.0 °F69 %30.24 in10.0 miCalmClear
1:35 AM32.0 °F23.0 °F69 %30.24 in10.0 miCalmClear
1:55 AM32.0 °F23.0 °F69 %30.24 in10.0 miCalmClear
2:15 AM30.2 °F23.0 °F75 %30.24 in10.0 miCalmClear
2:35 AM32.0 °F23.0 °F69 %30.25 in10.0 miCalmClear
2:55 AM30.2 °F24.8 °F80 %30.26 in10.0 miCalmClear
3:15 AM30.2 °F24.8 °F80 %30.25 in10.0 miCalmClear
3:35 AM32.0 °F24.8 °F75 %30.24 in10.0 miCalmClear
3:55 AM30.2 °F24.8 °F80 %30.24 in10.0 miCalmClear
4:15 AM30.2 °F23.0 °F75 %30.24 in10.0 miCalmClear
4:35 AM28.4 °F23.0 °F80 %30.24 in10.0 miCalmClear
4:55 AM28.4 °F24.8 °F86 %30.23 in10.0 miCalmClear
5:15 AM30.2 °F26.6 °F86 %30.23 in10.0 miCalmClear
5:35 AM30.2 °F24.8 °F80 %30.23 in10.0 miCalmClear
5:55 AM30.2 °F26.6 °F86 %30.23 in10.0 miCalmClear
6:15 AM30.2 °F26.6 °F86 %30.23 in10.0 miCalmClear
6:35 AM30.2 °F24.8 °F80 %30.23 in10.0 miCalmClear
6:55 AM30.2 °F24.8 °F80 %30.23 in10.0 miCalmClear
7:15 AM28.4 °F24.8 °F86 %30.25 in10.0 miCalmClear
7:35 AM26.6 °F24.8 °F93 %30.25 in10.0 miCalmClear
7:55 AM28.4 °F26.6 °F93 %30.24 in10.0 miCalmClear
8:15 AM30.2 °F26.6 °F86 %30.25 in10.0 miCalmClear
8:35 AM32.0 °F28.4 °F87 %30.25 in10.0 miCalmClear
8:55 AM35.6 °F30.2 °F81 %30.25 in10.0 miCalmClear
9:15 AM37.4 °F30.2 °F75 %30.26 in10.0 miCalmClear
9:35 AM41.0 °F32.0 °F70 %30.26 in10.0 miSE (130°)3.5 mphClear
9:55 AM42.8 °F32.0 °F66 %30.26 in10.0 miSE (130°)3.5 mphClear
10:15 AM44.6 °F32.0 °F61 %30.27 in10.0 miSouth (170°)3.5 mphClear
10:35 AM46.4 °F33.8 °F62 %30.27 in10.0 miCalmClear
10:55 AM50.0 °F35.6 °F58 %30.27 in10.0 miSouth (180°)4.6 mphClear
11:15 AM51.8 °F37.4 °F58 %30.25 in10.0 miSSW (200°)5.8 mphClear
11:35 AM53.6 °F39.2 °F58 %30.24 in10.0 miSouth (190°)4.6 mphClear
11:55 AM53.6 °F41.0 °F62 %30.23 in10.0 miWSW (240°)3.5 mphClear
12:15 PM55.4 °F41.0 °F58 %30.22 in10.0 miSSW (210°)3.5 mphClear
12:35 PM55.4 °F41.0 °F58 %30.20 in10.0 miSouth (170°)3.5 mphClear
12:55 PM57.2 °F41.0 °F55 %30.19 in10.0 miSouth (170°)3.5 mphClear
1:15 PM59.0 °F41.0 °F51 %30.18 in10.0 miCalmClear
1:35 PM59.0 °F41.0 °F51 %30.17 in10.0 miSouth (170°)3.5 mphClear
1:55 PM59.0 °F42.8 °F55 %30.16 in10.0 miSouth (190°)3.5 mphClear
2:15 PM59.0 °F42.8 °F55 %30.17 in10.0 miCalmClear
2:35 PM59.0 °F41.0 °F51 %30.16 in10.0 miSSW (200°)3.5 mphClear
2:55 PM59.0 °F41.0 °F51 %30.17 in10.0 miSE (140°)3.5 mphClear
3:15 PM57.2 °F41.0 °F55 %30.16 in10.0 miSSE (150°)3.5 mphClear
3:35 PM60.8 °F41.0 °F48 %30.16 in10.0 miCalmClear
3:55 PM60.8 °F41.0 °F48 %30.16 in10.0 miCalmClear
4:15 PM60.8 °F42.8 °F52 %30.14 in10.0 miSSE (160°)3.5 mphClear
4:35 PM59.0 °F42.8 °F55 %30.15 in10.0 miSE (130°)3.5 mphClear
4:55 PM59.0 °F42.8 °F55 %30.15 in10.0 miSE (140°)3.5 mphClear
5:15 PM55.4 °F42.8 °F63 %30.15 in10.0 miCalmClear
5:35 PM51.8 °F41.0 °F67 %30.15 in10.0 miCalmClear
5:55 PM48.2 °F41.0 °F76 %30.16 in10.0 miCalmClear
6:15 PM44.6 °F39.2 °F81 %30.16 in10.0 miCalmClear
6:35 PM44.6 °F39.2 °F81 %30.15 in10.0 miCalmClear
6:55 PM42.8 °F37.4 °F81 %30.16 in10.0 miCalmClear
7:15 PM41.0 °F37.4 °F87 %30.17 in10.0 miCalmClear
7:35 PM41.0 °F37.4 °F87 %30.17 in10.0 miCalmClear
7:55 PM39.2 °F37.4 °F93 %30.19 in10.0 miCalmClear
8:15 PM39.2 °F37.4 °F93 %30.19 in10.0 miCalmClear
8:35 PM41.0 °F37.4 °F87 %30.19 in10.0 miCalmClear
8:55 PM41.0 °F37.4 °F87 %30.19 in10.0 miCalmClear
9:15 PM42.8 °F39.2 °F87 %30.20 in10.0 miCalmClear
9:35 PM41.0 °F37.4 °F87 %30.20 in10.0 miNE (40°)3.5 mphClear
9:55 PM42.8 °F39.2 °F87 %30.20 in10.0 miCalmClear
10:15 PM44.6 °F41.0 °F87 %30.21 in10.0 miNNE (30°)4.6 mphClear
10:35 PM44.6 °F41.0 °F87 %30.21 in10.0 miNNE (30°)5.8 mphClear
10:55 PM44.6 °F39.2 °F81 %30.21 in10.0 miNE (40°)5.8 mphClear
11:15 PM44.6 °F39.2 °F81 %30.21 in10.0 miCalmClear
11:35 PM44.6 °F39.2 °F81 %30.22 in10.0 miNE (50°)5.8 mphScattered Clouds
11:55 PM46.4 °F39.2 °F76 %30.22 in10.0 miCalmMostly Cloudy
Hourly data recorded from KTQH, located miles away from Wagoner, Oklahoma







STORIES FROM OUR PARTNERS